This is the latest recevied weather packets stored in our database for station/object N8SDR. If no packets are shown the sender has not sent any weather packets the latest 10 day(s).
| Time | Temp. | Humidity | Pressure | Rain* | Wind** | Luminosity | Snow |
|---|---|---|---|---|---|---|---|
| 1777932329 | 23.89° C | 55% | 1002.6 hPa | 0 mm | - | 144 W/m² | - |
| 1777932026 | 23.89° C | 54% | 1002.7 hPa | 0 mm | - | 142 W/m² | - |
| 1777931723 | 23.89° C | 54% | 1002.8 hPa | 0 mm | - | 147 W/m² | - |
| 1777931420 | 23.89° C | 53% | 1002.6 hPa | 0 mm | - | 171 W/m² | - |
| 1777931116 | 23.89° C | 54% | 1002.5 hPa | 0 mm | - | 173 W/m² | - |
| 1777930812 | 23.89° C | 54% | 1002.5 hPa | 0 mm | - | 192 W/m² | - |
| 1777930509 | 23.89° C | 55% | 1002.9 hPa | 0 mm | - | 175 W/m² | - |
| 1777930207 | 23.89° C | 56% | 1003.1 hPa | 0 mm | - | 194 W/m² | - |
| 1777929902 | 23.89° C | 54% | 1003.3 hPa | 0 mm | - | 222 W/m² | - |
| 1777929600 | 23.89° C | 55% | 1003.4 hPa | 0 mm | - | 154 W/m² | - |
| 1777929296 | 23.89° C | 54% | 1003.5 hPa | 0 mm | - | 143 W/m² | - |
| 1777928994 | 24.44° C | 54% | 1003.4 hPa | 0 mm | - | 150 W/m² | - |
| 1777928690 | 23.89° C | 55% | 1003.4 hPa | 0 mm | - | 336 W/m² | - |
| 1777928387 | 23.89° C | 53% | 1003.5 hPa | 0 mm | - | 262 W/m² | - |
| 1777928085 | 23.89° C | 54% | 1003.6 hPa | 0 mm | - | 335 W/m² | - |
| 1777927783 | 23.89° C | 56% | 1003.8 hPa | 0 mm | - | 324 W/m² | - |
| 1777927481 | 23.33° C | 55% | 1003.6 hPa | 0 mm | - | 295 W/m² | - |
| 1777927180 | 23.33° C | 56% | 1003.8 hPa | 0 mm | - | 296 W/m² | - |
| 1777926877 | 23.33° C | 56% | 1003.6 hPa | 0 mm | - | 257 W/m² | - |
| 1777926573 | 23.33° C | 56% | 1004 hPa | 0 mm | - | 238 W/m² | - |
| 1777926270 | 23.33° C | 56% | 1004.1 hPa | 0 mm | - | 244 W/m² | - |
| 1777925966 | 23.33° C | 58% | 1004.2 hPa | 0 mm | - | 238 W/m² | - |
| 1777925664 | 22.78° C | 59% | 1004.2 hPa | 0 mm | - | 224 W/m² | - |
| 1777925361 | 23.33° C | 58% | 1003.9 hPa | 0 mm | - | 200 W/m² | - |
| 1777925058 | 23.33° C | 59% | 1003.9 hPa | 0 mm | - | 258 W/m² | - |
* Rain latest hour (hover to see other rain measurements)
** Current wind speed in m/s (hover to see current wind gust speed)